[[{"header":{"parameterUnit":"m.s-1","parameterCategory":1,"la1":30.2991,"la2":30.254,"lo1":-89.0895,"lo2":-89.0444,"dy":0.0017,"dx":0.0017,"nx":28,"ny":28,"refTime":"2024-03-27T03:00:00:Z","depth":0,"parameterNumber":2,"parameterNumberName":"U-component_of_WINDS"},"data":[0,0,0,0,0,0,0,0,0,0,0,0,0,0,0,0,0,0,0,0,0,0,0,0,0,0,0,0,0,0,0,0,0,0,0,0,0,0,0,0,0,0,0,0,0,0,0,0,0,0,0,0,0,0,0,0,0,0,-0.5142,-0.5142,0,-0.509,-0.5089,-0.5089,-0.5069,-0.5069,-0.5069,-0.5069,-0.5014,-0.5013,-0.5011,0,0,0,0,0,0,0,0,0,0,0,0,0,-0.5222,-0.522,-0.5142,-0.5141,-0.5141,-0.509,-0.5089,-0.5089,-0.5069,-0.5069,-0.5069,-0.5069,-0.5015,-0.5013,-0.5011,0,0,0,0,0,0,0,0,0,0,0,0,0,-0.518,-0.522,-0.5142,-0.5125,-0.5123,-0.509,-0.5089,-0.5088,-0.5068,-0.5069,-0.5069,-0.5069,-0.5015,-0.5013,-0.5011,-0.4991,0,0,-0.5003,-0.5002,0,0,0,0,0,0,0,0,-0.5182,-0.5177,-0.5128,-0.5126,-0.5123,-0.5086,-0.5097,-0.5056,-0.5068,-0.5089,-0.5069,-0.5069,-0.5038,-0.5034,-0.5023,-0.4989,-0.4986,-0.5003,-0.5002,-0.5001,-0.5,0,0,0,0,0,0,0,-0.5185,-0.5179,-0.5121,-0.5127,-0.5125,-0.5119,-0.5113,-0.5089,-0.5063,-0.5087,-0.5086,-0.508,-0.5037,-0.5026,-0.5022,-0.4986,-0.5003,-0.5001,-0.5,-0.4999,-0.493,-0.493,0,0,0,0,0,0,-0.5191,-0.5182,-0.5123,-0.512,-0.5154,-0.5117,-0.5111,-0.5098,-0.5063,-0.5058,-0.508,-0.5079,-0.503,-0.5025,-0.502,-0.4994,-0.5001,-0.4998,-0.4997,-0.4931,-0.493,-0.493,0,0,0,0,0,0,-0.5193,-0.5186,-0.5125,-0.515,-0.5142,-0.5115,-0.5101,-0.5097,-0.5086,-0.5057,-0.5052,-0.5073,-0.503,-0.5023,-0.4998,-0.4991,-0.4997,-0.4995,-0.4931,-0.4931,-0.493,-0.4942,0,0,0,0,0,0,-0.5196,-0.5187,-0.518,-0.515,-0.5141,-0.5105,-0.5101,-0.5095,-0.5082,-0.508,-0.505,-0.5045,-0.5029,-0.5002,-0.4996,-0.4988,-0.4993,-0.4932,-0.4931,-0.493,-0.4942,-0.4942,-0.4942,0,0,0,0,0,-0.5199,-0.5186,-0.518,-0.5173,-0.5132,-0.5105,-0.5099,-0.5082,-0.5081,-0.5074,-0.5055,-0.5046,-0.4993,-0.4999,-0.4992,-0.4984,-0.4932,-0.4931,-0.493,-0.4942,-0.4942,-0.4942,0,0,0,0,0,0,-0.5216,-0.5182,-0.5175,-0.5152,-0.5132,-0.5102,-0.5092,-0.5082,-0.5061,-0.5061,-0.5039,-0.5032,-0.5009,-0.4994,-0.5001,-0.4962,-0.4962,-0.496,-0.4973,-0.4973,-0.4972,-0.4976,-0.4991,0,0,0,0,0,-0.5217,-0.5199,-0.517,-0.5152,-0.5142,-0.5119,-0.5106,-0.5094,-0.5072,-0.5063,-0.5043,-0.5021,-0.4999,-0.4985,-0.4963,-0.494,-0.4932,-0.493,-0.493,-0.493,-0.4928,-0.4913,-0.4911,-0.4927,-0.4927,-0.4927,0,0,-0.5219,-0.5198,-0.5188,-0.5155,-0.5138,-0.5118,-0.5112,-0.5092,-0.5077,-0.506,-0.5035,-0.5019,-0.4993,-0.4968,-0.4956,-0.4955,-0.4922,-0.4929,-0.4929,-0.4927,-0.4912,-0.491,-0.4909,-0.4927,-0.4927,-0.4927,0,0,-0.5213,-0.5196,-0.5179,-0.5161,-0.5135,-0.5119,-0.5115,-0.5086,-0.5075,-0.5049,-0.5036,-0.5017,-0.498,-0.4962,-0.4948,-0.4933,-0.4923,-0.4926,-0.4925,-0.491,-0.4909,-0.4908,-0.4901,-0.4899,-0.4924,-0.4924,-0.4924,0,-0.5219,-0.519,-0.5171,-0.5152,-0.5137,-0.5121,-0.5103,-0.5086,-0.5054,-0.5044,-0.5043,-0.4995,-0.4977,-0.4946,-0.4943,-0.4932,-0.4926,-0.4929,-0.4911,-0.4909,-0.4908,-0.4901,-0.4899,-0.4925,-0.4925,-0.4925,-0.4925,0,-0.5198,-0.5177,-0.5167,-0.5136,-0.512,-0.5101,-0.5079,-0.5065,-0.5054,-0.5037,-0.5011,-0.4987,-0.496,-0.4952,-0.4941,-0.492,-0.4919,-0.4915,-0.4914,-0.4907,-0.49,-0.4898,-0.4926,-0.4925,-0.4925,-0.4925,0,0,-0.5202,-0.516,-0.5156,-0.5141,-0.511,-0.5094,-0.5074,-0.5047,-0.5035,-0.5012,-0.4994,-0.4962,-0.4958,-0.4941,-0.4928,-0.4915,-0.4903,-0.4912,-0.4911,-0.491,-0.4875,-0.4879,-0.4876,-0.4896,-0.4896,-0.4895,-0.4877,0,-0.5191,-0.5155,-0.5137,-0.5108,-0.5088,-0.5071,-0.5053,-0.5032,-0.5015,-0.4995,-0.4977,-0.4955,-0.4951,-0.4941,-0.4927,-0.4907,-0.4895,-0.4908,-0.4878,-0.4877,-0.4884,-0.4873,-0.4876,-0.486,-0.4875,-0.4874,-0.4874,0,-0.5174,-0.5152,-0.5121,-0.509,-0.5081,-0.5066,-0.5039,-0.502,-0.4995,-0.4984,-0.4965,-0.4951,-0.4928,-0.4928,-0.4895,-0.4904,-0.489,-0.4878,-0.4877,-0.4873,-0.4875,-0.4867,-0.4855,-0.4852,-0.487,-0.487,-0.487,0,-0.5179,-0.5141,-0.5117,-0.5105,-0.5069,-0.5058,-0.5043,-0.5017,-0.5002,-0.4978,-0.4967,-0.4941,-0.4927,-0.4906,-0.4886,-0.4888,-0.4853,-0.4853,-0.4843,-0.4843,-0.4836,-0.4836,-0.482,-0.4828,-0.4828,-0.4828,-0.4829,0,-0.5168,-0.515,-0.5119,-0.5104,-0.5082,-0.5061,-0.5039,-0.5022,-0.5,-0.498,-0.4964,-0.4946,-0.492,-0.4899,-0.4882,-0.4856,-0.485,-0.484,-0.4835,-0.4841,-0.4842,-0.4831,-0.4831,-0.4828,-0.4828,-0.4828,-0.4828,0,-0.517,-0.5149,-0.5122,-0.509,-0.5081,-0.5066,-0.5038,-0.5022,-0.5005,-0.498,-0.4973,-0.4946,-0.4919,-0.4897,-0.4862,-0.4851,-0.4823,-0.4819,-0.4832,-0.483,-0.482,-0.4821,-0.4796,-0.4791,-0.4803,-0.4803,-0.4803,0,-0.5165,-0.515,-0.5116,-0.5102,-0.5087,-0.5065,-0.5049,-0.5026,-0.501,-0.4978,-0.4966,-0.4938,-0.4915,-0.4873,-0.4849,-0.4822,-0.4816,-0.4809,-0.4812,-0.4817,-0.4815,-0.4815,-0.4813,-0.4809,-0.4809,-0.4809,-0.4809,0,-0.5157,-0.5147,-0.5125,-0.5098,-0.5079,-0.5057,-0.5034,-0.5024,-0.4997,-0.4979,-0.4952,-0.4934,-0.4897,-0.4869,-0.4839,-0.4822,-0.481,-0.4808,-0.4804,-0.4809,-0.4817,-0.4811,-0.4831,-0.4809,-0.4809,-0.4809,-0.4809,-0.4809,-0.5154,-0.514,-0.5113,-0.5088,-0.5069,-0.5048,-0.5031,-0.5011,-0.4988,-0.4957,-0.4945,-0.4916,-0.4889,-0.4847,-0.483,-0.4806,-0.4804,-0.4799,-0.4797,-0.4796,-0.4796,-0.4821,-0.4801,-0.4801,-0.4801,-0.4801,-0.4801,0,-0.5145,-0.5127,-0.5104,-0.5072,-0.5052,-0.5043,-0.5017,-0.5001,-0.4976,-0.4952,-0.4929,-0.4896,-0.4869,-0.4842,-0.4813,-0.4799,-0.4793,-0.4792,-0.4792,-0.4788,-0.48,-0.4806,-0.4797,-0.4797,-0.4797,-0.4797,-0.4797,-0.4797,-0.5138,-0.5112,-0.5098,-0.5062,-0.5043,-0.5016,-0.5001,-0.4981,-0.4961,-0.4926,-0.4902,-0.4885,-0.4859,-0.4828,-0.4801,-0.4794,-0.4783,-0.4784,-0.4775,-0.4787,-0.4787,-0.4788,-0.4793,-0.4782,-0.4782,-0.4765,-0.4764,-0.4764]},{"header":{"parameterUnit":"m.s-1","parameterCategory":1,"la1":30.2991,"la2":30.254,"lo1":-89.0895,"lo2":-89.0444,"dy":0.0017,"dx":0.0017,"nx":28,"ny":28,"refTime":"2024-03-27T03:00:00:Z","depth":0,"parameterNumber":3,"parameterNumberName":"V-component_of_WINDS"},"data":[0,0,0,0,0,0,0,0,0,0,0,0,0,0,0,0,0,0,0,0,0,0,0,0,0,0,0,0,0,0,0,0,0,0,0,0,0,0,0,0,0,0,0,0,0,0,0,0,0,0,0,0,0,0,0,0,0,0,-4.2465,-4.2466,0,-4.2515,-4.2515,-4.2516,-4.2544,-4.2544,-4.2544,-4.2544,-4.259,-4.2591,-4.2592,0,0,0,0,0,0,0,0,0,0,0,0,0,-4.2392,-4.2394,-4.2465,-4.2466,-4.2466,-4.2514,-4.2515,-4.2516,-4.2544,-4.2544,-4.2544,-4.2544,-4.259,-4.2591,-4.2592,0,0,0,0,0,0,0,0,0,0,0,0,0,-4.2431,-4.2394,-4.2465,-4.2486,-4.2489,-4.2514,-4.2515,-4.2516,-4.2544,-4.2544,-4.2544,-4.2544,-4.2589,-4.2591,-4.2593,-4.2599,0,0,-4.2598,-4.2598,0,0,0,0,0,0,0,0,-4.2429,-4.2434,-4.2483,-4.2485,-4.2488,-4.2523,-4.2506,-4.2544,-4.2544,-4.2523,-4.2544,-4.2544,-4.2567,-4.2571,-4.258,-4.2602,-4.2604,-4.2598,-4.2599,-4.26,-4.26,0,0,0,0,0,0,0,-4.2426,-4.2432,-4.2485,-4.2483,-4.2486,-4.2492,-4.2498,-4.2514,-4.2543,-4.2525,-4.2527,-4.2532,-4.2569,-4.2578,-4.2581,-4.2604,-4.2598,-4.2599,-4.26,-4.2601,-4.2637,-4.2637,0,0,0,0,0,0,-4.242,-4.2429,-4.2483,-4.2486,-4.2458,-4.2494,-4.25,-4.2512,-4.2543,-4.2548,-4.2532,-4.2534,-4.2575,-4.2579,-4.2583,-4.2594,-4.26,-4.2601,-4.2602,-4.2637,-4.2637,-4.2637,0,0,0,0,0,0,-4.2419,-4.2425,-4.2481,-4.2458,-4.2466,-4.2495,-4.2508,-4.2512,-4.2522,-4.2549,-4.2554,-4.2536,-4.2575,-4.258,-4.2596,-4.2596,-4.2602,-4.2603,-4.2637,-4.2637,-4.2637,-4.2617,0,0,0,0,0,0,-4.2417,-4.2424,-4.2428,-4.2458,-4.2467,-4.2494,-4.2508,-4.2513,-4.2525,-4.2527,-4.2554,-4.2559,-4.2576,-4.2593,-4.2598,-4.2599,-4.2605,-4.2637,-4.2637,-4.2637,-4.2617,-4.2616,-4.2615,0,0,0,0,0,-4.2414,-4.2418,-4.2428,-4.2434,-4.2472,-4.2494,-4.2499,-4.252,-4.2525,-4.2528,-4.2546,-4.2558,-4.2596,-4.2595,-4.26,-4.2601,-4.2637,-4.2637,-4.2637,-4.2618,-4.2616,-4.2615,0,0,0,0,0,0,-4.2385,-4.2423,-4.2433,-4.2448,-4.2468,-4.2499,-4.2504,-4.2517,-4.2534,-4.2535,-4.2559,-4.2565,-4.2578,-4.2591,-4.259,-4.2611,-4.2618,-4.2618,-4.2602,-4.26,-4.2599,-4.2595,-4.2606,0,0,0,0,0,-4.2381,-4.2396,-4.2428,-4.2438,-4.2448,-4.2474,-4.2484,-4.2499,-4.252,-4.2528,-4.2547,-4.2565,-4.2582,-4.2592,-4.2608,-4.262,-4.2626,-4.2623,-4.2622,-4.2621,-4.2621,-4.263,-4.2629,-4.2636,-4.2636,-4.2636,0,0,-4.2371,-4.2394,-4.2402,-4.2433,-4.245,-4.2466,-4.2481,-4.2496,-4.2507,-4.2529,-4.2546,-4.2561,-4.2583,-4.2598,-4.2605,-4.2609,-4.2621,-4.2621,-4.2619,-4.262,-4.263,-4.2629,-4.2628,-4.2636,-4.2636,-4.2636,0,0,-4.2362,-4.238,-4.2392,-4.2409,-4.2436,-4.2454,-4.2457,-4.2486,-4.2498,-4.2515,-4.2533,-4.2546,-4.2573,-4.2589,-4.2601,-4.2601,-4.2612,-4.2605,-4.2598,-4.2606,-4.2606,-4.2605,-4.2606,-4.2606,-4.2606,-4.2606,-4.2605,0,-4.2346,-4.2371,-4.2395,-4.2411,-4.2424,-4.2448,-4.2459,-4.2475,-4.2504,-4.2513,-4.2517,-4.2554,-4.257,-4.2589,-4.259,-4.2598,-4.2602,-4.2602,-4.2604,-4.2604,-4.2604,-4.2605,-4.2605,-4.2605,-4.2605,-4.2605,-4.2605,0,-4.2351,-4.2368,-4.2374,-4.2405,-4.242,-4.2432,-4.2459,-4.247,-4.2484,-4.2501,-4.2519,-4.2541,-4.2563,-4.2568,-4.258,-4.259,-4.2592,-4.26,-4.2607,-4.2602,-4.2603,-4.2604,-4.2603,-4.2604,-4.2604,-4.2604,0,0,-4.2323,-4.237,-4.2371,-4.2387,-4.2419,-4.2432,-4.2447,-4.2471,-4.248,-4.25,-4.2513,-4.2537,-4.2546,-4.2559,-4.2574,-4.2581,-4.2581,-4.2589,-4.259,-4.2587,-4.2594,-4.2588,-4.2588,-4.259,-4.259,-4.259,-4.2592,0,-4.2319,-4.2348,-4.2372,-4.2392,-4.2409,-4.2432,-4.2445,-4.2466,-4.2483,-4.2499,-4.2517,-4.2534,-4.2544,-4.2552,-4.2561,-4.2579,-4.2583,-4.258,-4.2601,-4.2602,-4.2596,-4.2589,-4.2582,-4.2583,-4.2593,-4.2593,-4.2593,0,-4.2317,-4.234,-4.2362,-4.2395,-4.2403,-4.2415,-4.2439,-4.2455,-4.2479,-4.2491,-4.2507,-4.2523,-4.254,-4.2546,-4.2569,-4.2566,-4.2577,-4.2588,-4.2588,-4.2591,-4.2597,-4.2592,-4.2584,-4.2584,-4.2594,-4.2594,-4.2594,0,-4.2296,-4.2331,-4.235,-4.2362,-4.2401,-4.2409,-4.2425,-4.245,-4.2463,-4.2484,-4.2493,-4.2515,-4.2527,-4.2544,-4.2565,-4.2568,-4.2586,-4.2594,-4.2597,-4.2596,-4.2599,-4.2599,-4.2593,-4.2605,-4.2605,-4.2605,-4.2605,0,-4.2289,-4.2302,-4.2341,-4.2353,-4.2368,-4.2395,-4.241,-4.2428,-4.245,-4.2465,-4.2486,-4.2499,-4.2527,-4.2544,-4.2561,-4.2578,-4.2583,-4.2593,-4.2597,-4.2591,-4.259,-4.2598,-4.2599,-4.2605,-4.2605,-4.2605,-4.2605,0,-4.2267,-4.2294,-4.2316,-4.2353,-4.2362,-4.2372,-4.2402,-4.2414,-4.2433,-4.2452,-4.2458,-4.2488,-4.2509,-4.2532,-4.256,-4.2572,-4.2588,-4.2594,-4.258,-4.2583,-4.2584,-4.2584,-4.2584,-4.2586,-4.2596,-4.2596,-4.2596,0,-4.2261,-4.2272,-4.2311,-4.2324,-4.234,-4.236,-4.2375,-4.2402,-4.2416,-4.2447,-4.2455,-4.2478,-4.2498,-4.253,-4.2553,-4.2575,-4.2582,-4.2581,-4.2585,-4.258,-4.2583,-4.2583,-4.2584,-4.2579,-4.2579,-4.2579,-4.2579,0,-4.2248,-4.2261,-4.2283,-4.231,-4.2328,-4.235,-4.2372,-4.2381,-4.2413,-4.2428,-4.2451,-4.2466,-4.2497,-4.252,-4.2545,-4.256,-4.2575,-4.2577,-4.2579,-4.2573,-4.2566,-4.2571,-4.2577,-4.2577,-4.2577,-4.2577,-4.2577,-4.2578,-4.2234,-4.2246,-4.2276,-4.23,-4.2321,-4.2342,-4.2356,-4.2378,-4.2398,-4.2427,-4.2441,-4.2464,-4.249,-4.2526,-4.2542,-4.256,-4.2564,-4.2566,-4.2567,-4.2567,-4.2566,-4.2563,-4.2564,-4.2564,-4.2564,-4.2564,-4.2564,0,-4.2223,-4.2244,-4.2266,-4.2299,-4.2318,-4.2332,-4.2358,-4.2373,-4.2394,-4.2418,-4.2438,-4.2465,-4.2488,-4.2514,-4.2538,-4.2548,-4.2555,-4.2553,-4.2553,-4.2557,-4.256,-4.2557,-4.2547,-4.2547,-4.2547,-4.2547,-4.2547,-4.2547,-4.2219,-4.2241,-4.2258,-4.2291,-4.2311,-4.2336,-4.235,-4.237,-4.239,-4.242,-4.244,-4.2458,-4.2483,-4.251,-4.2531,-4.2538,-4.2546,-4.2543,-4.2552,-4.2555,-4.2556,-4.2557,-4.2554,-4.2544,-4.2544,-4.2547,-4.2547,-4.2547]}]]